Location: İstanbul
(41.0082°N, 28.9784°E)
Time: 15:35:18
(UTC+03:00)

NOAA 15 - Pass Details

Date: 01 May 2024
Orbit: 795 x 811 km, 98.6° (Epoch: 21 May)

Event Time Altitude Azimuth Distance (km) Brightness Sun altitude
Rises 20:43:07 0° 193° (SSW) 3,300 7.6 -8.0°
Reaches altitude 10° 20:45:44 10° 204° (SSW) 2,371 7.0 -8.4°
Maximum altitude 20:50:15 29° 264° (W) 1,429 6.6 -9.2°
Drops below altitude 10° 20:54:48 10° 324° (NW) 2,378 8.2 -9.9°
Sets 20:57:26 0° 336° (NNW) 3,310 8.8 -10.3°
